Location: Ferintosh
(52.7647°N, 112.9692°W)
Time: 14:58:10
(UTC+00:00)

Transit 2A Rocket - Pass Details

Date: 19 May 2024
Orbit: 583 x 910 km, 66.7° (Epoch: 14 June)

Event Time Altitude Azimuth Distance (km) Brightness Sun altitude
Rises 12:18:48 0° 206° (SSW) 2,978 7.6 5.8°
Reaches altitude 10° 12:21:01 10° 203° (SSW) 2,115 6.9 6.1°
Maximum altitude 12:25:45 62° 123° (ESE) 819 5.6 6.8°
Drops below altitude 10° 12:31:02 10° 44° (NE) 2,344 9.0 7.5°
Sets 12:33:35 0° 41° (NE) 3,330 9.6 7.9°
